Location: Eastlake (historical)
(39.0077°N, 122.6678°W)
Time: 03:59:52
(UTC+00:00)

Atlas Centaur 2 - Pass Details

Date: 25 November 2020
Orbit: 459 x 1309 km, 30.4° (Epoch: 24 January)

Event Time Altitude Azimuth Distance (km) Brightness Sun altitude
Exits shadow 13:14:12 11° 217° (SW) 2,523 4.4 -21.2°
Maximum altitude 13:18:42 23° 168° (SSE) 1,615 3.9 -20.4°
Drops below altitude 10° 13:22:40 10° 116° (ESE) 2,139 5.4 -19.6°
Sets 13:25:13 0° 102° (ESE) 2,920 6.7 -19.1°
